SAS104 ESGG-EDDF

Flight info

Callsign SAS104
Flight time 1h 23m
Altitude 37000
Route TOPLA L996 ERNOV DCT NIKDA DCT NOBRI DCT BUMIL DCT HLZ DCT RIMET T157 KOKEB T157 KERAX
Aircraft B77W/H-SDE1E2E3FGHIJ2J3J4J5M1RWXY/LB1D1

Departure

Time 2026-05-06 17:12
Airport Göteborg Landvetter Airport (ESGG)

Arrival

Time 2026-05-06 18:36
Airport Frankfurt Main Airport (EDDF)
Time Latitude Longitude Altitude Speed Heading
2026-05-06 16:50 57.66615 12.29146 521 ft 0 kts 116°
2026-05-06 17:03 57.66616 12.29141 521 ft 2 kts 116°
2026-05-06 17:03 57.66623 12.29113 521 ft 2 kts 116°
2026-05-06 17:03 57.66631 12.29085 521 ft 2 kts 115°
2026-05-06 17:03 57.66638 12.29057 521 ft 2 kts 134°
2026-05-06 17:04 57.66652 12.29039 521 ft 2 kts 188°
2026-05-06 17:04 57.66658 12.29041 521 ft 0 kts 206°
2026-05-06 17:07 57.66643 12.29028 521 ft 11 kts 206°
2026-05-06 17:07 57.66599 12.28962 521 ft 1 kts 250°
2026-05-06 17:08 57.66599 12.28952 521 ft 1 kts 268°
2026-05-06 17:08 57.66610 12.28920 521 ft 6 kts 307°
2026-05-06 17:08 57.66644 12.28826 521 ft 10 kts 299°
2026-05-06 17:08 57.66692 12.28717 517 ft 12 kts 340°
2026-05-06 17:09 57.66774 12.28772 518 ft 17 kts 27°
2026-05-06 17:09 57.66947 12.28930 518 ft 28 kts 25°
2026-05-06 17:09 57.67122 12.29086 519 ft 28 kts 26°
2026-05-06 17:09 57.67291 12.29240 520 ft 25 kts 26°
2026-05-06 17:10 57.67420 12.29340 520 ft 14 kts 358°
2026-05-06 17:10 57.67455 12.29286 520 ft 0 kts 287°
2026-05-06 17:11 57.67456 12.29282 520 ft 0 kts 287°
2026-05-06 17:11 57.67456 12.29281 520 ft 0 kts 287°
2026-05-06 17:11 57.67461 12.29159 519 ft 20 kts 265°
2026-05-06 17:11 57.67376 12.28966 520 ft 20 kts 207°
2026-05-06 17:12 57.67087 12.28696 519 ft 85 kts 206°
2026-05-06 17:12 57.66300 12.27996 515 ft 163 kts 205°
2026-05-06 17:12 57.65151 12.26986 943 ft 184 kts 208°
2026-05-06 17:12 57.63997 12.25959 1930 ft 187 kts 208°
2026-05-06 17:13 57.62825 12.24907 2870 ft 187 kts 207°
2026-05-06 17:13 57.61671 12.23871 3841 ft 182 kts 204°
2026-05-06 17:13 57.60460 12.23323 4647 ft 181 kts 182°
2026-05-06 17:13 57.59138 12.23185 5040 ft 205 kts 184°
2026-05-06 17:14 57.57577 12.22941 5034 ft 239 kts 185°
2026-05-06 17:14 57.55914 12.22677 5041 ft 237 kts 184°
2026-05-06 17:14 57.54268 12.22761 5310 ft 238 kts 173°
2026-05-06 17:14 57.52620 12.23212 6291 ft 246 kts 171°
2026-05-06 17:15 57.50924 12.23719 7435 ft 248 kts 171°
2026-05-06 17:15 57.49211 12.24227 8555 ft 252 kts 171°
2026-05-06 17:15 57.47460 12.24734 9601 ft 258 kts 172°
2026-05-06 17:15 57.45642 12.25249 10454 ft 270 kts 172°
2026-05-06 17:16 57.43770 12.25777 11471 ft 273 kts 173°
2026-05-06 17:16 57.41861 12.26304 12375 ft 282 kts 174°
2026-05-06 17:16 57.39896 12.26842 13346 ft 288 kts 174°
2026-05-06 17:16 57.37892 12.27387 14244 ft 293 kts 174°
2026-05-06 17:17 57.35864 12.27937 14817 ft 296 kts 175°
2026-05-06 17:17 57.33802 12.28491 14925 ft 302 kts 175°
2026-05-06 17:17 57.31720 12.29050 14924 ft 303 kts 175°
2026-05-06 17:17 57.29526 12.29634 14956 ft 337 kts 174°
2026-05-06 17:18 57.27128 12.30271 14947 ft 354 kts 174°
2026-05-06 17:18 57.24684 12.30931 14935 ft 356 kts 174°
2026-05-06 17:18 57.22231 12.31593 15061 ft 359 kts 174°
2026-05-06 17:18 57.19737 12.32262 15924 ft 366 kts 174°
2026-05-06 17:19 57.17178 12.32943 16806 ft 376 kts 175°
2026-05-06 17:19 57.14565 12.33638 17790 ft 383 kts 175°
2026-05-06 17:19 57.11911 12.34333 18771 ft 387 kts 176°
2026-05-06 17:19 57.09239 12.35002 19744 ft 389 kts 177°
2026-05-06 17:20 57.06544 12.35665 20714 ft 392 kts 177°
2026-05-06 17:20 57.03824 12.36329 21478 ft 401 kts 178°
2026-05-06 17:20 57.00977 12.37013 21663 ft 423 kts 177°
2026-05-06 17:20 56.98005 12.37733 22119 ft 436 kts 177°
2026-05-06 17:21 56.95005 12.38470 22738 ft 444 kts 177°
2026-05-06 17:21 56.91939 12.39230 23658 ft 443 kts 178°
2026-05-06 17:21 56.88913 12.39987 24706 ft 436 kts 177°
2026-05-06 17:21 56.85915 12.40733 25561 ft 435 kts 177°
2026-05-06 17:22 56.82908 12.41471 26234 ft 438 kts 177°
2026-05-06 17:22 56.79870 12.42212 26846 ft 442 kts 177°
2026-05-06 17:22 56.76810 12.42956 27463 ft 445 kts 177°
2026-05-06 17:22 56.73729 12.43704 27960 ft 450 kts 177°
2026-05-06 17:23 56.70598 12.44462 27943 ft 459 kts 176°
2026-05-06 17:23 56.67391 12.45236 27954 ft 471 kts 176°
2026-05-06 17:23 56.64109 12.46031 28020 ft 479 kts 176°
2026-05-06 17:23 56.60813 12.46834 28625 ft 475 kts 176°
2026-05-06 17:24 56.57571 12.47627 29534 ft 466 kts 176°
2026-05-06 17:24 56.54386 12.48402 30407 ft 458 kts 176°
2026-05-06 17:24 56.51238 12.49161 31041 ft 455 kts 176°
2026-05-06 17:24 56.48103 12.49911 31509 ft 455 kts 176°
2026-05-06 17:25 56.44959 12.50661 31880 ft 457 kts 176°
2026-05-06 17:25 56.41799 12.51418 32314 ft 457 kts 176°
2026-05-06 17:25 56.38657 12.52175 32833 ft 455 kts 176°
2026-05-06 17:25 56.35515 12.52934 33352 ft 454 kts 176°
2026-05-06 17:26 56.32390 12.53688 33828 ft 453 kts 176°
2026-05-06 17:26 56.29268 12.54439 34206 ft 453 kts 176°
2026-05-06 17:26 56.26133 12.55191 34501 ft 455 kts 176°
2026-05-06 17:26 56.22989 12.55943 34796 ft 457 kts 176°
2026-05-06 17:27 56.19834 12.56680 35096 ft 457 kts 178°
2026-05-06 17:27 56.16665 12.57023 35389 ft 455 kts 182°
2026-05-06 17:27 56.13503 12.56866 35688 ft 453 kts 188°
2026-05-06 17:27 56.10378 12.56160 35969 ft 452 kts 192°
2026-05-06 17:28 56.07302 12.55010 36245 ft 451 kts 198°
2026-05-06 17:28 56.04285 12.53447 36520 ft 452 kts 199°
2026-05-06 17:28 56.01266 12.51852 36813 ft 453 kts 199°
2026-05-06 17:29 55.95158 12.48636 36953 ft 462 kts 199°
2026-05-06 17:29 55.88935 12.45403 36958 ft 469 kts 198°
2026-05-06 17:30 55.82626 12.42159 36975 ft 474 kts 198°
2026-05-06 17:30 55.76317 12.38935 36968 ft 476 kts 198°
2026-05-06 17:31 55.69944 12.35688 36967 ft 477 kts 198°
2026-05-06 17:31 55.63562 12.32445 36964 ft 476 kts 198°
2026-05-06 17:32 55.57203 12.29225 36966 ft 475 kts 198°
2026-05-06 17:32 55.50855 12.26021 36964 ft 473 kts 198°
2026-05-06 17:33 55.44527 12.22837 36963 ft 472 kts 198°
2026-05-06 17:33 55.38211 12.19669 36960 ft 472 kts 198°
2026-05-06 17:34 55.31901 12.16515 36964 ft 471 kts 198°
2026-05-06 17:34 55.25594 12.13373 36963 ft 471 kts 198°
2026-05-06 17:35 55.19288 12.10242 36960 ft 471 kts 198°
2026-05-06 17:35 55.12969 12.07114 36947 ft 472 kts 198°
2026-05-06 17:36 55.03488 12.02442 36951 ft 473 kts 198°
2026-05-06 17:36 54.97147 11.99329 36943 ft 473 kts 198°
2026-05-06 17:37 54.90843 11.96245 36927 ft 473 kts 197°
2026-05-06 17:37 54.84512 11.93260 36942 ft 471 kts 198°
2026-05-06 17:38 54.78160 11.90122 36943 ft 478 kts 198°
2026-05-06 17:38 54.71737 11.86966 36936 ft 481 kts 198°
2026-05-06 17:39 54.65284 11.83838 36916 ft 482 kts 198°
2026-05-06 17:39 54.58818 11.80727 36928 ft 483 kts 197°
2026-05-06 17:40 54.52341 11.77624 36919 ft 483 kts 197°
2026-05-06 17:40 54.45876 11.74534 36915 ft 482 kts 197°
2026-05-06 17:41 54.39417 11.71457 36909 ft 481 kts 197°
2026-05-06 17:41 54.32977 11.68398 36909 ft 480 kts 197°
2026-05-06 17:42 54.26543 11.65352 36904 ft 479 kts 197°
2026-05-06 17:42 54.20121 11.62321 36904 ft 479 kts 197°
2026-05-06 17:43 54.13731 11.59315 36896 ft 478 kts 197°
2026-05-06 17:43 54.07310 11.56304 36894 ft 478 kts 197°
2026-05-06 17:44 54.00895 11.53305 36896 ft 479 kts 197°
2026-05-06 17:44 53.94465 11.50310 36875 ft 479 kts 197°
2026-05-06 17:45 53.88043 11.47327 36885 ft 479 kts 197°
2026-05-06 17:45 53.81613 11.44351 36881 ft 479 kts 197°
2026-05-06 17:46 53.75179 11.41381 36880 ft 479 kts 197°
2026-05-06 17:46 53.69825 11.38918 36858 ft 480 kts 197°
2026-05-06 17:47 53.63381 11.35962 36863 ft 479 kts 197°
2026-05-06 17:47 53.56942 11.33017 36867 ft 480 kts 197°
2026-05-06 17:48 53.50497 11.30079 36856 ft 480 kts 197°
2026-05-06 17:48 53.44056 11.27152 36848 ft 480 kts 197°
2026-05-06 17:49 53.37613 11.24233 36857 ft 479 kts 197°
2026-05-06 17:49 53.31209 11.21341 36848 ft 479 kts 197°
2026-05-06 17:50 53.24766 11.18441 36849 ft 479 kts 197°
2026-05-06 17:50 53.18321 11.15548 36837 ft 479 kts 197°
2026-05-06 17:51 53.11891 11.12671 36848 ft 479 kts 197°
2026-05-06 17:51 53.05454 11.09800 36846 ft 479 kts 197°
2026-05-06 17:52 52.99013 11.06936 36843 ft 479 kts 197°
2026-05-06 17:52 52.92561 11.04076 36835 ft 479 kts 197°
2026-05-06 17:53 52.86113 11.01226 36837 ft 479 kts 197°
2026-05-06 17:53 52.79674 10.98389 36828 ft 479 kts 197°
2026-05-06 17:54 52.73272 10.95577 36818 ft 479 kts 197°
2026-05-06 17:54 52.66834 10.92758 36830 ft 479 kts 197°
2026-05-06 17:55 52.60390 10.89945 36820 ft 479 kts 197°
2026-05-06 17:55 52.53943 10.87139 36816 ft 479 kts 197°
2026-05-06 17:56 52.47502 10.84343 36812 ft 479 kts 197°
2026-05-06 17:56 52.41062 10.81556 36828 ft 478 kts 197°
2026-05-06 17:57 52.34648 10.78635 36819 ft 477 kts 200°
2026-05-06 17:57 52.28387 10.75032 36824 ft 477 kts 201°
2026-05-06 17:58 52.22135 10.71422 36831 ft 477 kts 201°
2026-05-06 17:58 52.15874 10.67846 36818 ft 477 kts 201°
2026-05-06 17:59 52.09650 10.64316 36814 ft 477 kts 201°
2026-05-06 17:59 52.03390 10.60778 36796 ft 476 kts 200°
2026-05-06 18:00 51.97128 10.57248 36797 ft 476 kts 200°
2026-05-06 18:00 51.90878 10.53736 36799 ft 475 kts 200°
2026-05-06 18:01 51.84633 10.50235 36797 ft 475 kts 200°
2026-05-06 18:01 51.78390 10.46747 36785 ft 475 kts 200°
2026-05-06 18:02 51.72170 10.43282 36781 ft 464 kts 200°
2026-05-06 18:02 51.69172 10.41618 36768 ft 448 kts 200°
2026-05-06 18:02 51.66279 10.40014 36780 ft 432 kts 200°
2026-05-06 18:03 51.63492 10.38470 36770 ft 417 kts 200°
2026-05-06 18:03 51.60792 10.36975 36769 ft 402 kts 200°
2026-05-06 18:03 51.58192 10.35537 36768 ft 387 kts 201°
2026-05-06 18:03 51.55683 10.34151 36783 ft 379 kts 201°
2026-05-06 18:04 51.50724 10.31412 36779 ft 374 kts 201°
2026-05-06 18:04 51.45832 10.28717 36786 ft 370 kts 201°
2026-05-06 18:05 51.40935 10.26025 36807 ft 375 kts 201°
2026-05-06 18:05 51.35969 10.23344 36772 ft 376 kts 197°
2026-05-06 18:06 51.33453 10.22439 36584 ft 376 kts 192°
2026-05-06 18:06 51.30830 10.21875 35847 ft 386 kts 187°
2026-05-06 18:06 51.28109 10.21729 35009 ft 396 kts 184°
2026-05-06 18:06 51.25327 10.21711 34205 ft 404 kts 183°
2026-05-06 18:07 51.22510 10.21705 33775 ft 403 kts 183°
2026-05-06 18:07 51.19727 10.21684 33580 ft 393 kts 184°
2026-05-06 18:07 51.17032 10.21649 33470 ft 381 kts 184°
2026-05-06 18:07 51.14422 10.21608 33315 ft 371 kts 184°
2026-05-06 18:08 51.11856 10.21562 33060 ft 364 kts 184°
2026-05-06 18:08 51.09353 10.21514 32753 ft 358 kts 184°
2026-05-06 18:08 51.06865 10.21463 32268 ft 357 kts 184°
2026-05-06 18:08 51.04373 10.21411 31695 ft 359 kts 184°
2026-05-06 18:09 51.01866 10.21361 31114 ft 362 kts 183°
2026-05-06 18:09 50.99342 10.21312 30565 ft 363 kts 183°
2026-05-06 18:09 50.96812 10.21264 30042 ft 364 kts 182°
2026-05-06 18:09 50.94270 10.21216 29453 ft 366 kts 182°
2026-05-06 18:10 50.91719 10.21168 28787 ft 368 kts 182°
2026-05-06 18:10 50.89158 10.21120 28253 ft 367 kts 182°
2026-05-06 18:10 50.86624 10.21070 27873 ft 361 kts 182°
2026-05-06 18:10 50.84162 10.21009 27539 ft 354 kts 184°
2026-05-06 18:11 50.81774 10.20338 26972 ft 346 kts 203°
2026-05-06 18:11 50.79742 10.18381 26159 ft 343 kts 221°
2026-05-06 18:11 50.78080 10.15633 25384 ft 349 kts 229°
2026-05-06 18:11 50.76525 10.12692 24981 ft 347 kts 230°
2026-05-06 18:12 50.75003 10.09773 24626 ft 339 kts 230°
2026-05-06 18:12 50.73521 10.06933 24004 ft 334 kts 230°
2026-05-06 18:12 50.72042 10.04110 23193 ft 334 kts 230°
2026-05-06 18:12 50.70555 10.01285 22341 ft 333 kts 230°
2026-05-06 18:13 50.69078 9.98492 21618 ft 329 kts 230°
2026-05-06 18:13 50.67620 9.95743 20833 ft 327 kts 230°
2026-05-06 18:13 50.66149 9.92978 19886 ft 332 kts 230°
2026-05-06 18:13 50.64634 9.90135 19039 ft 341 kts 230°
2026-05-06 18:14 50.63113 9.87285 18247 ft 339 kts 230°
2026-05-06 18:14 50.61596 9.84443 17269 ft 340 kts 230°
2026-05-06 18:14 50.60074 9.81597 16300 ft 340 kts 230°
2026-05-06 18:14 50.58555 9.78762 15457 ft 336 kts 230°
2026-05-06 18:15 50.57061 9.75977 14662 ft 331 kts 230°
2026-05-06 18:15 50.55582 9.73222 13884 ft 328 kts 230°
2026-05-06 18:15 50.54115 9.70490 13051 ft 324 kts 230°
2026-05-06 18:15 50.52686 9.67831 12259 ft 320 kts 230°
2026-05-06 18:16 50.51258 9.65175 11482 ft 316 kts 230°
2026-05-06 18:16 50.49839 9.62542 11120 ft 315 kts 230°
2026-05-06 18:16 50.48417 9.59903 10945 ft 317 kts 230°
2026-05-06 18:16 50.47217 9.57020 10785 ft 318 kts 247°
2026-05-06 18:17 50.46590 9.53793 10792 ft 303 kts 254°
2026-05-06 18:17 50.46039 9.50680 10775 ft 290 kts 253°
2026-05-06 18:17 50.45496 9.47701 10782 ft 281 kts 253°
2026-05-06 18:17 50.44951 9.44762 10789 ft 281 kts 252°
2026-05-06 18:18 50.44401 9.41819 10794 ft 281 kts 252°
2026-05-06 18:18 50.43848 9.38881 10795 ft 281 kts 252°
2026-05-06 18:18 50.43291 9.35934 10807 ft 282 kts 252°
2026-05-06 18:18 50.42733 9.32988 10793 ft 282 kts 252°
2026-05-06 18:19 50.42171 9.30041 10785 ft 281 kts 252°
2026-05-06 18:19 50.41612 9.27111 10614 ft 280 kts 252°
2026-05-06 18:19 50.41051 9.24212 10355 ft 276 kts 251°
2026-05-06 18:19 50.40411 9.21382 10022 ft 275 kts 249°
2026-05-06 18:20 50.39746 9.18570 9690 ft 274 kts 249°
2026-05-06 18:20 50.39086 9.15781 9350 ft 273 kts 249°
2026-05-06 18:20 50.38433 9.12995 9011 ft 271 kts 249°
2026-05-06 18:20 50.37786 9.10221 8664 ft 270 kts 249°
2026-05-06 18:21 50.37143 9.07459 8339 ft 269 kts 249°
2026-05-06 18:21 50.36505 9.04716 8033 ft 267 kts 249°
2026-05-06 18:21 50.35869 9.01990 7698 ft 266 kts 249°
2026-05-06 18:21 50.35235 8.99269 7390 ft 265 kts 249°
2026-05-06 18:22 50.34604 8.96564 7073 ft 264 kts 249°
2026-05-06 18:22 50.33974 8.93871 6749 ft 263 kts 249°
2026-05-06 18:22 50.33345 8.91186 6444 ft 262 kts 249°
2026-05-06 18:22 50.32719 8.88518 6115 ft 261 kts 249°
2026-05-06 18:23 50.31950 8.85986 5655 ft 259 kts 232°
2026-05-06 18:23 50.30516 8.84288 5234 ft 263 kts 203°
2026-05-06 18:23 50.28733 8.83756 4981 ft 262 kts 182°
2026-05-06 18:23 50.26934 8.84238 4665 ft 265 kts 165°
2026-05-06 18:24 50.25200 8.85216 4304 ft 265 kts 161°
2026-05-06 18:24 50.23649 8.86722 4000 ft 268 kts 133°
2026-05-06 18:24 50.22745 8.89278 4003 ft 280 kts 106°
2026-05-06 18:24 50.22680 8.92294 4002 ft 279 kts 77°
2026-05-06 18:25 50.23299 8.95127 4007 ft 276 kts 69°
2026-05-06 18:25 50.23982 8.97943 3999 ft 278 kts 69°
2026-05-06 18:25 50.24657 9.00768 3995 ft 277 kts 69°
2026-05-06 18:25 50.25322 9.03588 3999 ft 276 kts 69°
2026-05-06 18:26 50.25981 9.06405 3994 ft 276 kts 69°
2026-05-06 18:26 50.26641 9.09224 4005 ft 276 kts 69°
2026-05-06 18:26 50.27290 9.12051 3988 ft 274 kts 73°
2026-05-06 18:26 50.27465 9.14982 3998 ft 274 kts 101°
2026-05-06 18:27 50.26752 9.17729 3983 ft 275 kts 129°
2026-05-06 18:27 50.25324 9.19630 3995 ft 269 kts 156°
2026-05-06 18:27 50.23539 9.20255 3990 ft 262 kts 185°
2026-05-06 18:27 50.21829 9.19494 3989 ft 255 kts 213°
2026-05-06 18:28 50.20457 9.17801 4012 ft 252 kts 224°
2026-05-06 18:28 50.19161 9.15919 4007 ft 256 kts 225°
2026-05-06 18:28 50.17866 9.14006 4009 ft 256 kts 225°
2026-05-06 18:28 50.16686 9.11981 3978 ft 249 kts 241°
2026-05-06 18:29 50.16044 9.09485 4004 ft 251 kts 252°
2026-05-06 18:29 50.15467 9.06884 4015 ft 256 kts 250°
2026-05-06 18:29 50.14853 9.04274 4009 ft 255 kts 250°
2026-05-06 18:29 50.14240 9.01690 4010 ft 253 kts 250°
2026-05-06 18:30 50.13631 8.99124 4001 ft 251 kts 250°
2026-05-06 18:30 50.13026 8.96576 4003 ft 249 kts 250°
2026-05-06 18:30 50.12426 8.94051 4007 ft 247 kts 250°
2026-05-06 18:30 50.12036 8.92409 3990 ft 240 kts 250°
2026-05-06 18:31 50.11293 8.89280 3989 ft 224 kts 250°
2026-05-06 18:31 50.10757 8.87024 4000 ft 219 kts 250°
2026-05-06 18:31 50.10239 8.84846 3962 ft 210 kts 250°
2026-05-06 18:31 50.09733 8.82718 3653 ft 209 kts 251°
2026-05-06 18:32 50.09394 8.81288 3473 ft 208 kts 250°
2026-05-06 18:32 50.08895 8.79192 3191 ft 206 kts 251°
2026-05-06 18:32 50.08407 8.77140 2908 ft 204 kts 251°
2026-05-06 18:32 50.07911 8.75056 2633 ft 202 kts 251°
2026-05-06 18:33 50.07484 8.73017 2320 ft 193 kts 258°
2026-05-06 18:33 50.07191 8.71026 1876 ft 190 kts 261°
2026-05-06 18:33 50.06918 8.69060 1601 ft 174 kts 260°
2026-05-06 18:33 50.06616 8.67274 1403 ft 169 kts 255°
2026-05-06 18:34 50.06252 8.65545 1176 ft 167 kts 253°
2026-05-06 18:34 50.05828 8.63975 974 ft 149 kts 246°
2026-05-06 18:34 50.05402 8.62584 788 ft 137 kts 251°
2026-05-06 18:34 50.05062 8.61145 680 ft 142 kts 255°
2026-05-06 18:35 50.04738 8.59731 525 ft 134 kts 253°
2026-05-06 18:35 50.04390 8.58264 382 ft 149 kts 252°
2026-05-06 18:35 50.04082 8.56892 371 ft 114 kts 249°
2026-05-06 18:35 50.03859 8.55963 364 ft 70 kts 249°
2026-05-06 18:36 50.03745 8.55481 359 ft 26 kts 250°
2026-05-06 18:36 50.03682 8.55162 356 ft 36 kts 266°
2026-05-06 18:36 50.03709 8.54877 358 ft 3 kts 281°
2026-05-06 18:38 50.03709 8.54875 358 ft 2 kts 281°
2026-05-06 18:38 50.03738 8.54810 360 ft 2 kts 339°
2026-05-06 18:39 50.03758 8.54818 361 ft 8 kts 27°
2026-05-06 18:39 50.03825 8.55023 363 ft 29 kts 68°
2026-05-06 18:39 50.03899 8.55319 361 ft 29 kts 70°
2026-05-06 18:40 50.04021 8.55836 360 ft 23 kts 69°
2026-05-06 18:40 50.04078 8.56071 360 ft 23 kts 69°
2026-05-06 18:40 50.04135 8.56307 362 ft 23 kts 70°
2026-05-06 18:40 50.04190 8.56539 365 ft 22 kts 69°
2026-05-06 18:41 50.04243 8.56761 369 ft 22 kts 70°
2026-05-06 18:41 50.04296 8.56984 370 ft 22 kts 69°
2026-05-06 18:41 50.04350 8.57207 368 ft 22 kts 69°
2026-05-06 18:41 50.04386 8.57356 373 ft 0 kts 70°
2026-05-06 18:43 50.04387 8.57362 370 ft 5 kts 70°
2026-05-06 18:43 50.04411 8.57464 369 ft 10 kts 70°
2026-05-06 18:44 50.04434 8.57562 369 ft 10 kts 70°
2026-05-06 18:44 50.04474 8.57728 374 ft 25 kts 70°
2026-05-06 18:44 50.04531 8.57969 372 ft 17 kts 68°
2026-05-06 18:44 50.04619 8.58013 368 ft 15 kts 338°
2026-05-06 18:45 50.04719 8.57953 368 ft 15 kts 343°
2026-05-06 18:45 50.04797 8.58039 370 ft 15 kts 70°
2026-05-06 18:45 50.04835 8.58195 369 ft 15 kts 69°
2026-05-06 18:45 50.04875 8.58352 370 ft 15 kts 69°
2026-05-06 18:46 50.04917 8.58466 368 ft 9 kts 25°
2026-05-06 18:46 50.04965 8.58449 371 ft 7 kts 338°
2026-05-06 18:46 50.04991 8.58433 368 ft 0 kts 339°